TIANMU-1 21

Last updated on Sun Oct 06 2024 00:02:18 GMT+0000 (Coordinated Universal Time)

1 58662U 23208C 24279.56943808 .00024947 00000+0 11681-2 0 9993 2 58662 97.4152 29.9000 0008641 357.4495 2.6694 15.19679641 42937
UTC large
Height (km)
Speed (km/s)
/
Latitude / Longitude
Inclination (degrees)
Orbital Period (minutes)
Azimuth
Elevation
Range (km)
Doppler Factor

Next 0 passes for location: London (51.5072 / 0.1276)

Sorry there are no passes over London.